Regional Weather Roundup
Issued by NWS

Home | Current Version | Previous Version | Text Only | Print | Product List | Glossary On
Versions: 1 2 3 4 5 6 7 8 9 10 11 12 13 14 15 16 17 18 19 20 21 22 23 24 25 26 27 28 29 30 31 32 33 34 35 36 37 38 39 40 41 42 43 44 45 46 47 48 49 50
000
ASUS43 KLSX 271057
RWRMO

WEATHER SUMMARY FOR MISSOURI
NATIONAL WEATHER SERVICE SPRINGFIELD MO
600 AM CDT THU JUL 27 2017

NOTE: "FAIR" INDICATES FEW OR NO CLOUDS BELOW 12,000 FEET WITH NO
       SIGNIFICANT WEATHER AND/OR OBSTRUCTIONS TO VISIBILITY.
       CURRENT SKY AND/OR WEATHER CONDITIONS ARE NOT AVAILABLE FOR
       CHILLICOTHE AND FARMINGTON.

MOZ001>031-035>038-043-044-053-054-271200-
...NORTHERN AND WESTERN MISSOURI...

CITY           SKY/WX    TMP DP  RH WIND       PRES   REMARKS
KANSAS CTY INT CLOUDY    74  73  97 NE5       29.96F
LEE`S SUMMIT   LGT RAIN  73  73 100 CALM      29.95S
ST JOSEPH      CLOUDY    74  74 100 NE7       29.97R
CHILLICOTHE      N/A     75  75 100 VRB3      29.96S
KIRKSVILLE     CLOUDY    73  73 100 NE5       29.96R

$$
MOZ066>068-077>081-088>096-101>105-271200-
...SOUTHWEST MISSOURI...

CITY           SKY/WX    TMP DP  RH WIND       PRES   REMARKS
SPRINGFIELD    LGT RAIN  76  73  91 S7        29.99F
JOPLIN         LGT RAIN  78  77  96 SW5       29.98R

$$
MOZ032>034-039>042-045>050-055>058-069>072-271200-
...CENTRAL MISSOURI...

CITY           SKY/WX    TMP DP  RH WIND       PRES   REMARKS
COLUMBIA       NOT AVBL
JEFFERSON CITY LGT RAIN  74  74 100 CALM      29.95R
ROLLA          LGT RAIN  72  72 100 SW7       29.99F
SEDALIA        LGT RAIN  75  75 100 S10       29.96F
WARRENSBURG    CLOUDY    72  72 100 S7        29.93S

$$
MOZ051-052-059>065-271200-
...EAST CENTRAL MISSOURI...

CITY           SKY/WX    TMP DP  RH WIND       PRES   REMARKS
ST LOUIS INTL  LGT RAIN  76  73  91 NE3       29.97R

$$
MOZ072>076-082>087-097>100-106>115-271200-
...SOUTH CENTRAL AND SOUTHEAST MISSOURI...

CITY           SKY/WX    TMP DP  RH WIND       PRES   REMARKS
CAPE GIRARDEAU CLOUDY    77  74  90 W5        29.95S
POPLAR BLUFF   CLOUDY    77  76  96 SW7       29.96R
WEST PLAINS    MOCLDY    76  71  85 SW3       30.01F

$$



USA.gov is the U.S. government's official web portal to all federal, state and local government web resources and services.